SCP
0 0 0 0 0 0 0 0 0 0 0 0 0 0 0 0 0 0 0 0 0 0 0 0 0 0 0 0 0 0 0 0 2 0 0 0 0 0 0 0 0 0 0 0 0 0 0 0 0 0 0 0 0 0
0 0 0 0 0 0 0 0 0 0 0 0 0 0 0 0 0 0 0 0 0 0 0 0 0 0 0 0 0 0 0 0 2 0 1 1 0 0 0 0 0 0 0 0 0 0 0 0 0 1 0 0 0 0
0 0 0 0 0 0 0 0 0 0 0 0 0 0 0 0 0 0 0 0 0 0 0 0 0 0 0 0 0 0 0 0 0 0 0 1 0 0 0 0 0 0 0 0 0 0 0 0 0 0 0 0 0 0
0 0 0 0 0 0 0 0 0 0 0 0 0 0 0 0 0 0 0 0 0 0 0 0 0 0 0 0 0 0 0 0 0 0 0 1 0 0 0 0 0 0 0 0 0 0 0 0 0 0 0 0 0 0
0 0 0 0 0 0 0 0 0 0 0 0 0 0 0 0 0 0 0 0 0 0 0 0 0 0 0 0 0 0 0 0 0 0 0 1 0 0 0 0 0 0 0 0 0 0 0 1 0 0 0 0 0 1
0 0 0 0 0 0 0 0 0 0 0 0 0 0 0 0 0 0 0 0 0 0 0 -0 0 0 0 0 0 0 0 0 0 0 0 0 0 0 0 0 0 -0 0 0 0 -0 0 0 0 0 0 0 0 1
0 0 0 0 0 0 0 0 0 0 0 0 0 0 0 0 0 0 0 0 0 0 0 0 0 0 0 0 0 0 0 0 0 0 0 0 0 0 0 0 0 -0 0 0 -0 0 0 0 0 0 0 1 1 1
0 0 0 0 0 0 0 0 0 0 0 0 0 0 0 0 0 0 0 0 0 0 0 0 0 0 0 0 0 0 0 0 0 0 0 0 0 0 0 0 0 0 0 0 0 0 0 0 0 0 0 0 0 1
0 0 0 0 0 0 0 0 0 0 0 0 0 0 0 0 0 0 0 0 0 0 0 0 0 0 0 0 0 0 0 0 0 0 0 0 0 0 0 0 0 0 0 0 0 0 0 0 0 0 0 0 0 0
0 0 0 0 0 0 0 0 0 0 0 0 0 0 0 0 0 0 0 0 0 0 0 0 0 0 0 0 0 0 0 0 0 0 0 0 0 0 0 0 0 0 0 0 0 0 0 0 0 0 0 0 0 0
0 0 0 0 0 0 0 0 0 0 0 0 0 0 0 0 0 0 0 0 0 0 0 0 0 0 0 0 0 0 0 0 0 0 0 0 0 0 0 0 0 0 0 0 0 0 0 0 0 0 0 0 0 0
0 0 0 0 0 0 0 0 0 0 0 0 0 0 0 0 0 0 0 0 0 0 0 0 0 0 0 0 0 0 0 0 0 0 0 0 0 0 0 0 0 0 0 0 0 0 0 0 0 0 0 1 0 0
0 0 0 0 0 0 0 0 0 0 0 0 0 0 0 0 0 0 0 0 0 0 0 0 0 0 0 0 0 0 0 0 0 0 0 0 0 0 0 0 0 0 0 0 0 0 0 0 0 1 0 0 0 0
0 0 0 0 0 0 0 0 0 0 0 0 0 0 0 0 0 0 0 0 0 0 0 0 0 0 0 0 0 0 0 0 0 0 0 0 0 0 0 -0 -0 0 -0 0 0 0 0 0 0 0 0 0 0 0
0 0 0 0 0 0 0 0 0 0 0 0 0 0 0 0 0 0 0 0 -0 -0 -0 0 0 0 0 0 0 0 0 0 0 0 0 0 0 0 0 -0 -0 -0 0 0 0 0 0 0 0 0 0 0 0 -0
0 0 0 0 -0 -0 -0 0 0 0 0 0 0 0 0 0 0 0 0 0 0 0 -0 0 0 0 0 0 0 0 0 0 0 0 0 0 0 -0 -0 -0 -0 -0 0 0 0 0 0 0 0 0 0 -0 -0 0
0 0 0 0 -0 -0 0 0 0 0 0 0 -0 0 0 0 0 0 0 0 0 0 0 0 0 0 0 0 0 0 0 0 0 -0 0 0 0 0 0 0 0 0 0 0 0 0 0 0 0 0 -0 -0 0 0
0 0 0 0 0 0 0 0 0 0 0 0 0 -0 0 0 0 0 0 0 0 0 0 0 0 0 0 0 0 0 0 0 0 0 -0 0 0 0 0 0 0 0 0 0 0 0 0 0 0 0 -0 0 0 0
0 0 0 0 0 0 0 0 0 0 0 0 0 0 0 0 0 0 0 0 0 0 0 0 0 0 0 0 0 0 0 0 0 0 0 0 0 0 0 0 0 0 0 0 0 0 0 0 -0 -0 0 0 0 0
0 0 0 0 0 0 0 0 0 0 0 0 0 0 0 0 0 0 0 0 0 0 0 0 0 0 0 0 -0 0 0 -0 0 -0 0 0 0 0 0 0 0 0 0 0 0 0 0 0 0 0 0 0 0 0
0 0 0 0 0 0 0 0 0 0 0 0 0 0 -0 0 0 0 0 0 0 0 0 0 0 0 0 -0 -0 -0 -0 -0 -0 -0 -0 -0 0 0 -0 0 0 0 0 0 0 0 0 0 0 0 0 0 0 0
0 0 0 0 0 0 0 0 0 0 0 0 -0 -0 0 0 0 0 0 0 0 0 0 0 0 0 0 0 0 -0 0 -0 0 -0 0 0 0 0 0 0 0 0 0 -0 -0 -0 -0 0 0 0 0 0 0 0
0 0 0 0 0 0 0 0 0 0 0 0 0 -0 -0 0 0 0 0 0 0 0 0 0 0 0 0 -0 0 0 0 0 0 0 0 0 0 0 0 0 0 0 0 -0 -0 -0 0 0 0 0 0 0 0 0
-0 0 0 0 0 0 0 0 0 0 0 0 -0 0 0 0 0 0 0 0 0 0 0 0 0 0 0 0 0 0 0 0 0 0 0 0 0 0 0 0 0 0 0 0 0 0 0 0 0 0 0 0 0 0
-0 0 0 -0 -0 -0 0 0 0 0 0 -0 -0 -0 -0 -0 0 0 0 0 0 0 0 0 0 0 0 0 0 0 0 0 0 0 0 0 0 0 0 0 0 0 0 0 0 0 0 0 0 0 0 0 0 0
0 0 -0 -0 -0 -0 0 0 0 0 0 -0 -0 -0 -0 0 0 0 0 0 0 0 0 0 0 0 0 0 0 0 0 0 0 0 0 0 0 0 0 0 0 0 0 0 0 0 0 0 0 0 0 0 0 0
0 0 0 0 0 0 0 0 0 0 -0 -0 -0 -0 0 0 0 0 0 0 0 0 0 0 0 0 0 0 0 0 0 0 0 0 0 0 0 0 0 0 0 0 0 0 0 0 0 0 0 0 0 0 0 0
0 0 0 0 0 0 0 0 0 0 0 0 0 0 0 0 0 0 0 0 0 0 0 -0 0 0 0 0 0 0 0 0 0 0 0 0 0 0 0 0 0 0 0 0 0 0 0 0 0 0 0 0 0 0
0 0 0 0 0 0 0 0 0 0 0 0 0 0 0 0 0 0 -0 0 0 0 0 0 0 0 0 0 0 0 0 0 0 0 0 0 0 0 0 0 0 0 0 0 0 0 0 0 0 0 0 0 0 0
0 0 0 0 0 0 0 -0 -0 -0 0 0 0 0 0 0 0 0 0 -0 -0 -0 0 0 -0 -0 -0 -0 0 0 0 0 0 0 0 0 0 0 0 0 0 0 0 0 0 0 0 0 0 0 0 0 0 0
0 -0 -0 -0 0 0 0 0 0 0 0 0 0 -0 0 0 0 0 0 0 0 0 0 0 0 0 0 0 0 0 0 0 0 0 0 0 0 0 0 0 0 0 0 0 0 0 0 0 0 0 0 0 0 0
-0 -0 0 0 0 -0 0 0 -0 -0 -0 0 0 0 0 0 0 0 0 0 0 0 0 0 0 0 0 0 0 0 -0 -0 -0 -0 0 0 0 0 0 0 0 0 0 0 0 0 0 0 0 0 0 0 0 0
-0 -0 0 -0 0 -0 -0 -0 -0 -0 -0 -0 -0 0 0 0 0 0 0 0 0 0 0 0 0 0 0 0 0 0 0 -0 -0 -0 0 0 0 0 0 0 0 0 0 0 0 0 0 0 0 0 0 0 0 0
Wind_Speed_500mb
41 35 28 23 19 14 11 10 13 16 17 16 16 15 15 15 16 12 11 7 7 10 47 49 47 23 28 11 6 26 9 14 12 8 5 6 5 9 4 7 9 12 11 7 6 5 8 22 15 14 16 35 28 19
40 34 29 25 20 16 13 12 15 17 19 20 18 17 16 16 18 16 15 20 13 22 26 27 36 42 42 37 40 14 7 5 7 4 6 5 4 1 6 5 5 2 11 8 9 10 9 21 9 17 35 40 22 21
39 33 29 25 20 16 13 14 16 18 20 22 21 18 17 18 19 20 19 20 21 23 53 47 48 33 29 31 34 20 9 6 5 12 4 7 5 4 4 5 2 5 1 6 6 13 26 5 14 20 28 13 18 26
36 32 28 23 19 16 14 15 16 19 21 23 23 20 17 18 20 22 24 14 13 10 12 16 10 23 20 28 34 41 48 43 34 24 11 7 5 5 7 6 5 6 8 6 2 14 17 14 22 25 18 17 31 18
35 30 25 21 18 16 14 14 16 20 24 24 23 20 18 18 21 24 27 24 20 13 10 32 63 39 35 33 41 41 43 48 52 10 5 7 10 1 4 5 1 11 12 7 12 22 14 30 31 28 28 29 20 15
33 27 22 19 16 14 14 15 18 22 25 25 23 17 18 19 17 13 7 19 29 24 12 8 24 44 31 36 39 35 42 43 51 14 11 15 15 6 2 5 9 23 23 26 10 37 42 34 34 29 32 28 24 21
29 24 20 16 14 12 13 15 18 21 24 25 19 15 17 14 21 23 9 16 29 29 8 14 16 17 22 33 38 34 44 39 36 32 18 31 46 17 4 7 20 30 20 25 42 37 36 31 33 38 41 36 31 27
27 23 18 14 11 9 10 13 16 20 24 22 12 11 11 15 21 32 18 19 11 20 10 7 12 17 11 20 28 38 37 48 35 31 18 11 14 12 7 25 27 27 23 20 42 52 29 28 33 37 38 49 41 34
27 22 17 12 8 7 10 13 16 19 22 13 7 4 9 10 14 27 28 17 12 17 9 8 5 7 15 17 29 25 31 6 23 17 27 16 7 10 16 29 32 33 40 33 32 52 27 39 44 40 50 52 42 31
25 21 14 8 5 7 10 14 15 20 14 8 11 4 8 9 11 5 15 10 15 15 17 12 12 8 24 22 9 3 16 9 6 13 33 12 17 47 58 58 60 50 44 33 36 35 30 40 45 51 59 46 35 27
23 17 11 4 5 8 11 13 16 14 4 4 4 8 16 19 12 8 11 15 15 9 16 22 45 16 16 4 8 10 6 6 8 13 11 7 13 25 55 65 67 69 65 40 47 47 44 46 42 53 51 41 33 28
19 13 8 4 7 8 10 12 16 9 5 7 15 20 8 14 11 10 9 11 11 11 12 22 43 55 24 15 10 12 7 2 11 5 8 17 10 38 41 51 61 69 63 66 61 56 52 48 46 56 59 53 43 24
16 11 8 8 10 10 10 11 14 10 10 14 8 7 6 9 1 11 10 6 7 10 17 25 12 15 22 27 14 5 6 10 13 1 7 8 3 14 30 38 43 46 46 53 64 62 52 45 50 60 62 47 33 29
15 11 11 10 11 10 8 9 12 1 4 5 7 7 8 8 10 10 11 16 26 43 36 30 11 16 22 11 15 8 9 2 5 5 9 6 18 34 49 51 47 51 52 48 51 43 43 60 63 53 49 24 25 26
12 10 11 11 10 11 7 8 9 7 6 7 8 9 14 22 32 19 34 26 36 30 35 31 19 18 9 6 8 7 1 9 9 9 8 12 9 18 23 22 24 29 31 28 23 30 49 65 77 72 50 31 17 10
10 5 4 1 7 10 6 7 6 9 8 8 13 9 15 14 24 27 38 33 28 28 16 16 8 4 11 8 7 10 5 8 6 5 6 5 6 13 17 21 24 23 12 9 39 46 48 46 21 46 14 29 48 43
9 8 6 4 7 6 9 9 6 10 9 10 18 23 28 36 29 38 30 38 32 17 6 10 8 13 3 3 8 4 9 8 49 48 35 36 17 15 15 15 16 12 3 18 39 41 30 15 4 30 32 40 32 23
14 9 8 7 13 5 6 11 8 9 12 22 19 35 30 27 29 46 31 22 20 15 16 7 14 6 2 5 8 11 29 39 49 30 17 5 14 16 13 4 5 9 15 23 33 40 31 23 18 40 52 25 22 18
19 8 7 7 9 8 7 9 12 10 27 27 34 42 43 47 41 42 40 39 16 10 21 14 6 3 5 11 15 31 43 53 40 26 30 24 23 25 22 17 14 5 6 15 20 29 30 30 38 55 31 26 24 23
17 16 14 12 14 7 8 9 14 13 11 10 26 34 34 43 44 45 40 30 22 5 3 5 1 4 9 30 25 26 31 28 24 17 23 23 25 21 27 24 20 9 7 10 7 24 16 46 48 40 35 31 30 18
19 18 19 24 25 14 11 9 10 13 14 13 25 30 22 29 31 31 30 24 28 9 8 15 19 27 27 14 8 16 16 16 11 18 8 7 14 24 31 25 13 34 50 50 43 46 28 28 20 17 22 17 11 6
9 9 15 15 10 9 14 16 13 15 12 17 28 23 17 12 21 18 20 25 13 12 13 22 27 18 20 13 7 12 7 7 7 0 10 12 18 19 13 29 35 51 41 37 30 25 15 20 23 24 17 16 13 13
13 13 14 11 13 11 15 15 12 10 8 8 10 7 8 4 6 11 4 4 4 7 18 21 13 7 7 8 11 11 4 4 12 11 17 11 19 21 32 28 40 37 32 35 46 43 36 32 30 28 21 16 13 13
13 11 10 11 24 10 10 11 13 9 8 6 5 7 6 3 7 5 2 5 10 8 9 15 12 14 25 36 36 30 23 29 41 38 37 41 39 31 35 32 39 40 50 52 48 42 34 29 23 18 18 15 14 14
9 14 14 12 14 9 7 6 8 7 7 7 5 7 5 6 2 3 3 6 14 12 13 16 33 31 34 36 40 39 30 26 39 61 60 55 55 56 59 57 55 49 37 32 33 28 29 25 24 22 24 20 17 15
11 12 12 15 11 10 8 6 7 8 5 4 8 6 2 5 4 3 2 9 12 22 35 42 42 45 38 37 37 31 34 37 56 57 45 46 41 39 37 36 35 43 32 23 20 21 21 20 21 19 19 20 21 20
9 12 17 18 10 9 7 9 11 6 6 7 5 6 4 3 2 2 1 12 21 27 27 38 42 46 51 51 46 51 51 44 49 59 55 51 48 40 29 26 28 25 16 17 18 20 21 21 22 24 23 19 20 24
19 12 13 15 16 18 6 7 8 9 10 13 3 3 3 1 3 9 7 25 30 40 42 41 43 42 40 38 38 42 43 38 31 26 17 11 13 20 21 18 12 4 10 15 17 19 15 11 10 8 9 14 16 16
16 23 25 16 17 15 22 11 12 10 5 12 5 4 6 4 13 26 23 14 14 23 21 31 34 25 18 14 18 23 27 29 22 14 21 25 22 24 15 9 8 8 10 9 8 6 4 4 5 6 6 7 14 20
8 2 4 14 11 10 14 12 15 23 20 30 33 35 33 31 24 17 28 34 39 34 34 26 25 23 22 19 23 27 27 24 20 16 14 17 19 12 7 10 10 14 13 14 9 6 2 5 9 13 17 22 26 28
9 16 21 15 11 24 34 41 46 48 53 56 52 58 51 52 50 39 30 26 24 25 26 26 25 22 20 16 12 17 22 25 25 23 18 13 13 10 12 10 13 15 15 12 10 11 11 14 17 22 26 29 34 40
9 11 12 6 17 31 40 38 35 35 33 32 26 30 28 19 16 23 26 19 20 21 17 12 14 17 11 8 11 16 19 19 22 27 18 13 10 9 7 9 13 10 10 7 12 12 14 17 20 23 23 27 35 38
30 21 14 12 10 13 11 8 4 5 5 6 6 9 9 7 6 7 12 17 24 22 15 12 11 12 15 14 11 13 16 18 20 28 28 21 21 19 19 19 21 24 19 10 13 18 17 18 24 25 22 27 30 30
Wind_Direction_500mb
184 186 191 196 205 219 242 272 295 304 308 308 302 293 281 269 265 252 182 213 263 261 267 268 281 285 319 326 355 326 8 6 354 40 125 240 196 233 148 220 205 173 138 193 94 110 251 196 133 170 179 161 167 170
186 189 194 201 210 223 245 273 290 299 305 306 302 290 280 265 258 252 212 203 254 272 263 266 264 265 268 271 275 300 291 290 34 13 359 318 310 312 167 229 87 141 178 174 149 214 308 206 240 151 162 159 165 171
188 192 198 204 212 223 245 267 283 295 304 307 305 291 274 261 255 251 234 236 263 288 290 275 270 274 256 259 273 242 252 159 21 356 293 273 278 112 37 282 235 301 19 102 91 341 352 242 145 162 161 166 171 171
190 194 198 205 213 228 245 261 279 298 308 311 306 292 267 255 249 247 241 225 252 285 273 283 264 257 230 239 249 247 253 272 288 299 257 250 242 176 228 226 116 226 9 110 310 278 3 119 166 179 185 196 161 153
189 193 198 206 220 233 242 257 279 299 310 312 307 291 266 249 246 245 243 222 226 248 294 295 301 275 258 244 242 252 250 251 259 269 247 244 255 162 276 84 218 195 173 146 219 206 180 195 195 207 204 182 187 184
188 192 200 210 218 227 243 265 283 298 308 313 308 283 259 246 236 235 231 230 210 213 295 310 303 287 257 234 235 248 235 237 235 214 244 261 254 231 174 193 225 166 175 203 226 203 217 205 212 227 215 192 187 180
185 191 196 204 216 234 256 273 287 299 309 313 301 274 261 242 215 204 189 171 171 188 250 290 278 276 287 241 240 241 226 222 225 232 228 240 265 281 169 196 212 202 212 218 229 196 205 212 222 225 189 181 174 161
180 183 185 192 210 236 266 285 293 304 313 311 286 270 291 245 234 229 172 152 177 194 242 260 270 292 257 219 226 233 230 230 227 222 239 262 274 219 222 225 223 230 213 223 206 204 226 223 192 177 187 175 167 160
173 173 177 186 215 259 283 298 298 308 313 296 237 255 289 230 227 217 177 200 227 231 267 252 222 263 330 268 227 219 216 189 228 202 223 231 226 236 218 214 233 231 248 253 218 221 232 209 201 196 190 181 179 161
167 171 176 193 246 283 296 304 305 319 303 272 190 217 241 218 253 166 171 202 204 218 231 244 274 269 341 336 332 225 192 204 208 235 236 212 236 239 246 260 273 274 260 238 206 206 204 202 220 197 187 185 180 166
167 171 173 195 284 292 306 310 317 328 297 191 201 246 274 283 187 200 194 192 204 238 223 227 241 262 277 308 272 239 234 218 198 239 166 232 239 237 252 256 255 260 261 260 237 246 248 243 234 191 177 179 175 165
168 176 193 253 306 303 313 313 325 329 208 217 311 305 298 176 209 214 186 210 196 212 232 204 215 220 230 243 256 263 205 287 240 166 154 236 237 251 259 263 266 264 265 263 254 247 242 227 214 195 183 178 173 175
184 195 227 265 303 305 314 314 332 330 207 234 281 239 253 229 260 209 221 219 198 241 209 190 201 191 196 216 277 270 264 233 328 305 221 216 252 306 284 286 285 294 276 278 261 260 238 217 197 190 177 174 166 168
206 222 254 274 291 298 308 304 329 191 136 233 246 217 241 218 232 210 202 215 232 240 256 291 262 213 203 162 216 236 247 89 270 266 227 241 270 291 294 301 302 309 306 280 254 228 192 174 163 145 122 100 124 101
223 245 275 285 273 289 290 289 315 189 160 244 256 242 224 258 316 324 328 276 259 313 303 277 277 212 224 230 210 206 313 243 204 219 225 267 10 360 356 348 344 327 315 300 236 161 151 154 158 148 137 113 305 136
225 250 82 83 301 278 247 269 289 178 207 246 240 264 299 24 333 326 348 341 347 330 307 207 241 234 209 205 177 228 261 208 209 212 102 112 344 339 338 340 344 350 343 156 135 136 135 137 3 300 152 171 161 182
212 162 111 26 320 272 234 242 207 212 226 243 247 254 262 270 282 306 325 327 340 349 5 293 209 210 261 209 195 239 284 257 308 315 297 276 322 66 62 33 6 358 272 189 166 166 185 195 206 292 223 168 180 173
184 178 192 294 330 302 265 229 233 236 238 252 258 269 265 274 274 284 273 285 318 5 338 352 314 341 318 345 27 345 338 346 1 4 12 58 91 82 68 61 272 242 246 249 256 261 235 232 214 234 203 175 172 191
189 180 204 241 329 285 256 229 217 248 236 243 263 274 275 276 278 272 285 295 287 339 328 296 236 200 320 38 10 350 353 3 7 50 79 76 61 46 31 15 9 208 282 315 221 206 228 206 195 195 182 171 146 139
198 205 222 260 308 296 273 235 205 251 260 252 273 282 277 282 278 278 280 294 234 259 272 264 261 59 343 334 337 323 327 337 1 37 71 69 59 30 16 14 26 350 353 14 187 144 169 152 157 152 139 125 132 127
229 245 259 271 287 266 267 277 252 248 274 268 285 299 287 283 281 277 276 272 211 209 230 236 270 308 319 312 328 335 331 308 355 8 326 92 104 92 78 61 72 96 79 85 87 99 91 90 93 130 155 148 135 108
231 259 274 267 247 246 256 236 245 283 279 272 290 269 250 252 265 267 311 233 205 207 218 240 256 296 337 339 317 320 289 202 236 12 226 171 187 176 141 131 128 124 121 110 120 118 140 156 142 120 104 105 112 122
237 238 255 239 229 239 260 226 240 240 234 255 295 264 248 250 343 345 45 10 261 238 260 269 255 331 348 350 352 311 204 175 129 156 157 185 186 129 101 112 106 105 112 125 126 129 121 109 100 93 93 91 84 87
235 227 230 232 201 250 236 230 220 251 258 258 247 270 315 43 357 44 285 288 317 306 270 251 206 138 111 89 102 83 103 113 107 109 123 112 118 109 108 99 94 101 104 109 110 110 108 103 101 97 91 94 89 85
227 227 227 236 208 230 251 233 224 221 248 229 253 261 200 117 19 326 304 307 345 66 95 130 157 135 109 94 105 113 100 98 103 102 103 99 98 104 97 93 88 84 85 89 89 94 89 87 85 85 88 88 82 68
235 226 220 207 201 206 213 244 220 223 227 231 257 249 141 130 190 243 284 307 350 65 95 94 96 100 100 99 94 100 110 111 111 105 103 119 116 106 95 82 73 66 69 74 79 79 77 67 54 41 32 18 7 360
241 239 231 222 222 189 250 266 275 249 231 230 256 180 104 183 188 126 345 68 56 77 95 93 92 85 85 85 80 98 128 121 121 104 105 105 98 89 73 65 58 58 41 28 18 12 7 2 4 5 5 353 358 356
237 250 201 207 214 210 224 210 223 215 210 221 204 59 107 44 90 160 149 99 94 95 90 86 82 78 84 94 87 96 101 110 120 120 117 122 108 97 98 99 94 32 333 328 331 330 340 17 53 54 9 354 352 354
248 238 199 219 199 190 202 231 189 215 221 187 111 127 170 103 96 121 129 104 121 128 99 99 96 86 89 82 87 111 125 139 154 128 90 82 74 67 69 65 55 47 50 52 47 30 10 46 89 102 81 29 5 351
284 319 284 16 32 32 13 11 72 73 89 110 106 105 99 97 120 134 109 108 116 111 121 130 125 128 116 108 98 88 83 80 83 74 63 57 62 69 48 34 37 60 82 100 96 93 27 319 329 331 332 341 354 3
60 79 61 58 52 50 70 98 97 101 104 93 90 90 90 87 74 64 68 82 96 106 118 117 113 121 128 118 73 56 62 48 34 37 43 83 122 103 76 66 76 97 92 81 56 44 20 8 17 19 18 17 16 13
66 90 108 100 98 102 93 87 89 88 93 89 88 85 82 66 61 57 92 90 77 82 96 101 88 80 60 51 55 50 35 32 30 31 52 72 71 56 52 54 57 63 56 78 58 49 38 36 30 26 16 7 5 5
87 75 100 122 157 186 164 135 114 125 143 137 141 99 85 94 100 126 92 92 98 96 90 67 50 36 33 41 59 52 35 28 27 35 45 62 66 68 63 51 45 46 50 53 31 23 21 9 8 14 5 356 353 347
Wind_Speed_850mb
41 35 28 23 19 14 11 10 13 16 17 16 16 15 15 15 16 12 11 7 7 10 47 49 47 23 28 11 6 26 9 14 12 8 5 6 5 9 4 7 9 12 11 7 6 5 8 22 15 14 16 35 28 19
40 34 29 25 20 16 13 12 15 17 19 20 18 17 16 16 18 16 15 20 13 22 26 27 36 42 42 37 40 14 7 5 7 4 6 5 4 1 6 5 5 2 11 8 9 10 9 21 9 17 35 40 22 21
39 33 29 25 20 16 13 14 16 18 20 22 21 18 17 18 19 20 19 20 21 23 53 47 48 33 29 31 34 20 9 6 5 12 4 7 5 4 4 5 2 5 1 6 6 13 26 5 14 20 28 13 18 26
36 32 28 23 19 16 14 15 16 19 21 23 23 20 17 18 20 22 24 14 13 10 12 16 10 23 20 28 34 41 48 43 34 24 11 7 5 5 7 6 5 6 8 6 2 14 17 14 22 25 18 17 31 18
35 30 25 21 18 16 14 14 16 20 24 24 23 20 18 18 21 24 27 24 20 13 10 32 63 39 35 33 41 41 43 48 52 10 5 7 10 1 4 5 1 11 12 7 12 22 14 30 31 28 28 29 20 15
33 27 22 19 16 14 14 15 18 22 25 25 23 17 18 19 17 13 7 19 29 24 12 8 24 44 31 36 39 35 42 43 51 14 11 15 15 6 2 5 9 23 23 26 10 37 42 34 34 29 32 28 24 21
29 24 20 16 14 12 13 15 18 21 24 25 19 15 17 14 21 23 9 16 29 29 8 14 16 17 22 33 38 34 44 39 36 32 18 31 46 17 4 7 20 30 20 25 42 37 36 31 33 38 41 36 31 27
27 23 18 14 11 9 10 13 16 20 24 22 12 11 11 15 21 32 18 19 11 20 10 7 12 17 11 20 28 38 37 48 35 31 18 11 14 12 7 25 27 27 23 20 42 52 29 28 33 37 38 49 41 34
27 22 17 12 8 7 10 13 16 19 22 13 7 4 9 10 14 27 28 17 12 17 9 8 5 7 15 17 29 25 31 6 23 17 27 16 7 10 16 29 32 33 40 33 32 52 27 39 44 40 50 52 42 31
25 21 14 8 5 7 10 14 15 20 14 8 11 4 8 9 11 5 15 10 15 15 17 12 12 8 24 22 9 3 16 9 6 13 33 12 17 47 58 58 60 50 44 33 36 35 30 40 45 51 59 46 35 27
23 17 11 4 5 8 11 13 16 14 4 4 4 8 16 19 12 8 11 15 15 9 16 22 45 16 16 4 8 10 6 6 8 13 11 7 13 25 55 65 67 69 65 40 47 47 44 46 42 53 51 41 33 28
19 13 8 4 7 8 10 12 16 9 5 7 15 20 8 14 11 10 9 11 11 11 12 22 43 55 24 15 10 12 7 2 11 5 8 17 10 38 41 51 61 69 63 66 61 56 52 48 46 56 59 53 43 24
16 11 8 8 10 10 10 11 14 10 10 14 8 7 6 9 1 11 10 6 7 10 17 25 12 15 22 27 14 5 6 10 13 1 7 8 3 14 30 38 43 46 46 53 64 62 52 45 50 60 62 47 33 29
15 11 11 10 11 10 8 9 12 1 4 5 7 7 8 8 10 10 11 16 26 43 36 30 11 16 22 11 15 8 9 2 5 5 9 6 18 34 49 51 47 51 52 48 51 43 43 60 63 53 49 24 25 26
12 10 11 11 10 11 7 8 9 7 6 7 8 9 14 22 32 19 34 26 36 30 35 31 19 18 9 6 8 7 1 9 9 9 8 12 9 18 23 22 24 29 31 28 23 30 49 65 77 72 50 31 17 10
10 5 4 1 7 10 6 7 6 9 8 8 13 9 15 14 24 27 38 33 28 28 16 16 8 4 11 8 7 10 5 8 6 5 6 5 6 13 17 21 24 23 12 9 39 46 48 46 21 46 14 29 48 43
9 8 6 4 7 6 9 9 6 10 9 10 18 23 28 36 29 38 30 38 32 17 6 10 8 13 3 3 8 4 9 8 49 48 35 36 17 15 15 15 16 12 3 18 39 41 30 15 4 30 32 40 32 23
14 9 8 7 13 5 6 11 8 9 12 22 19 35 30 27 29 46 31 22 20 15 16 7 14 6 2 5 8 11 29 39 49 30 17 5 14 16 13 4 5 9 15 23 33 40 31 23 18 40 52 25 22 18
19 8 7 7 9 8 7 9 12 10 27 27 34 42 43 47 41 42 40 39 16 10 21 14 6 3 5 11 15 31 43 53 40 26 30 24 23 25 22 17 14 5 6 15 20 29 30 30 38 55 31 26 24 23
17 16 14 12 14 7 8 9 14 13 11 10 26 34 34 43 44 45 40 30 22 5 3 5 1 4 9 30 25 26 31 28 24 17 23 23 25 21 27 24 20 9 7 10 7 24 16 46 48 40 35 31 30 18
19 18 19 24 25 14 11 9 10 13 14 13 25 30 22 29 31 31 30 24 28 9 8 15 19 27 27 14 8 16 16 16 11 18 8 7 14 24 31 25 13 34 50 50 43 46 28 28 20 17 22 17 11 6
9 9 15 15 10 9 14 16 13 15 12 17 28 23 17 12 21 18 20 25 13 12 13 22 27 18 20 13 7 12 7 7 7 0 10 12 18 19 13 29 35 51 41 37 30 25 15 20 23 24 17 16 13 13
13 13 14 11 13 11 15 15 12 10 8 8 10 7 8 4 6 11 4 4 4 7 18 21 13 7 7 8 11 11 4 4 12 11 17 11 19 21 32 28 40 37 32 35 46 43 36 32 30 28 21 16 13 13
13 11 10 11 24 10 10 11 13 9 8 6 5 7 6 3 7 5 2 5 10 8 9 15 12 14 25 36 36 30 23 29 41 38 37 41 39 31 35 32 39 40 50 52 48 42 34 29 23 18 18 15 14 14
9 14 14 12 14 9 7 6 8 7 7 7 5 7 5 6 2 3 3 6 14 12 13 16 33 31 34 36 40 39 30 26 39 61 60 55 55 56 59 57 55 49 37 32 33 28 29 25 24 22 24 20 17 15
11 12 12 15 11 10 8 6 7 8 5 4 8 6 2 5 4 3 2 9 12 22 35 42 42 45 38 37 37 31 34 37 56 57 45 46 41 39 37 36 35 43 32 23 20 21 21 20 21 19 19 20 21 20
9 12 17 18 10 9 7 9 11 6 6 7 5 6 4 3 2 2 1 12 21 27 27 38 42 46 51 51 46 51 51 44 49 59 55 51 48 40 29 26 28 25 16 17 18 20 21 21 22 24 23 19 20 24
19 12 13 15 16 18 6 7 8 9 10 13 3 3 3 1 3 9 7 25 30 40 42 41 43 42 40 38 38 42 43 38 31 26 17 11 13 20 21 18 12 4 10 15 17 19 15 11 10 8 9 14 16 16
16 23 25 16 17 15 22 11 12 10 5 12 5 4 6 4 13 26 23 14 14 23 21 31 34 25 18 14 18 23 27 29 22 14 21 25 22 24 15 9 8 8 10 9 8 6 4 4 5 6 6 7 14 20
8 2 4 14 11 10 14 12 15 23 20 30 33 35 33 31 24 17 28 34 39 34 34 26 25 23 22 19 23 27 27 24 20 16 14 17 19 12 7 10 10 14 13 14 9 6 2 5 9 13 17 22 26 28
9 16 21 15 11 24 34 41 46 48 53 56 52 58 51 52 50 39 30 26 24 25 26 26 25 22 20 16 12 17 22 25 25 23 18 13 13 10 12 10 13 15 15 12 10 11 11 14 17 22 26 29 34 40
9 11 12 6 17 31 40 38 35 35 33 32 26 30 28 19 16 23 26 19 20 21 17 12 14 17 11 8 11 16 19 19 22 27 18 13 10 9 7 9 13 10 10 7 12 12 14 17 20 23 23 27 35 38
30 21 14 12 10 13 11 8 4 5 5 6 6 9 9 7 6 7 12 17 24 22 15 12 11 12 15 14 11 13 16 18 20 28 28 21 21 19 19 19 21 24 19 10 13 18 17 18 24 25 22 27 30 30
Wind_Direction_850mb
184 186 191 196 205 219 242 272 295 304 308 308 302 293 281 269 265 252 182 213 263 261 267 268 281 285 319 326 355 326 8 6 354 40 125 240 196 233 148 220 205 173 138 193 94 110 251 196 133 170 179 161 167 170
186 189 194 201 210 223 245 273 290 299 305 306 302 290 280 265 258 252 212 203 254 272 263 266 264 265 268 271 275 300 291 290 34 13 359 318 310 312 167 229 87 141 178 174 149 214 308 206 240 151 162 159 165 171
188 192 198 204 212 223 245 267 283 295 304 307 305 291 274 261 255 251 234 236 263 288 290 275 270 274 256 259 273 242 252 159 21 356 293 273 278 112 37 282 235 301 19 102 91 341 352 242 145 162 161 166 171 171
190 194 198 205 213 228 245 261 279 298 308 311 306 292 267 255 249 247 241 225 252 285 273 283 264 257 230 239 249 247 253 272 288 299 257 250 242 176 228 226 116 226 9 110 310 278 3 119 166 179 185 196 161 153
189 193 198 206 220 233 242 257 279 299 310 312 307 291 266 249 246 245 243 222 226 248 294 295 301 275 258 244 242 252 250 251 259 269 247 244 255 162 276 84 218 195 173 146 219 206 180 195 195 207 204 182 187 184
188 192 200 210 218 227 243 265 283 298 308 313 308 283 259 246 236 235 231 230 210 213 295 310 303 287 257 234 235 248 235 237 235 214 244 261 254 231 174 193 225 166 175 203 226 203 217 205 212 227 215 192 187 180
185 191 196 204 216 234 256 273 287 299 309 313 301 274 261 242 215 204 189 171 171 188 250 290 278 276 287 241 240 241 226 222 225 232 228 240 265 281 169 196 212 202 212 218 229 196 205 212 222 225 189 181 174 161
180 183 185 192 210 236 266 285 293 304 313 311 286 270 291 245 234 229 172 152 177 194 242 260 270 292 257 219 226 233 230 230 227 222 239 262 274 219 222 225 223 230 213 223 206 204 226 223 192 177 187 175 167 160
173 173 177 186 215 259 283 298 298 308 313 296 237 255 289 230 227 217 177 200 227 231 267 252 222 263 330 268 227 219 216 189 228 202 223 231 226 236 218 214 233 231 248 253 218 221 232 209 201 196 190 181 179 161
167 171 176 193 246 283 296 304 305 319 303 272 190 217 241 218 253 166 171 202 204 218 231 244 274 269 341 336 332 225 192 204 208 235 236 212 236 239 246 260 273 274 260 238 206 206 204 202 220 197 187 185 180 166
167 171 173 195 284 292 306 310 317 328 297 191 201 246 274 283 187 200 194 192 204 238 223 227 241 262 277 308 272 239 234 218 198 239 166 232 239 237 252 256 255 260 261 260 237 246 248 243 234 191 177 179 175 165
168 176 193 253 306 303 313 313 325 329 208 217 311 305 298 176 209 214 186 210 196 212 232 204 215 220 230 243 256 263 205 287 240 166 154 236 237 251 259 263 266 264 265 263 254 247 242 227 214 195 183 178 173 175
184 195 227 265 303 305 314 314 332 330 207 234 281 239 253 229 260 209 221 219 198 241 209 190 201 191 196 216 277 270 264 233 328 305 221 216 252 306 284 286 285 294 276 278 261 260 238 217 197 190 177 174 166 168
206 222 254 274 291 298 308 304 329 191 136 233 246 217 241 218 232 210 202 215 232 240 256 291 262 213 203 162 216 236 247 89 270 266 227 241 270 291 294 301 302 309 306 280 254 228 192 174 163 145 122 100 124 101
223 245 275 285 273 289 290 289 315 189 160 244 256 242 224 258 316 324 328 276 259 313 303 277 277 212 224 230 210 206 313 243 204 219 225 267 10 360 356 348 344 327 315 300 236 161 151 154 158 148 137 113 305 136
225 250 82 83 301 278 247 269 289 178 207 246 240 264 299 24 333 326 348 341 347 330 307 207 241 234 209 205 177 228 261 208 209 212 102 112 344 339 338 340 344 350 343 156 135 136 135 137 3 300 152 171 161 182
212 162 111 26 320 272 234 242 207 212 226 243 247 254 262 270 282 306 325 327 340 349 5 293 209 210 261 209 195 239 284 257 308 315 297 276 322 66 62 33 6 358 272 189 166 166 185 195 206 292 223 168 180 173
184 178 192 294 330 302 265 229 233 236 238 252 258 269 265 274 274 284 273 285 318 5 338 352 314 341 318 345 27 345 338 346 1 4 12 58 91 82 68 61 272 242 246 249 256 261 235 232 214 234 203 175 172 191
189 180 204 241 329 285 256 229 217 248 236 243 263 274 275 276 278 272 285 295 287 339 328 296 236 200 320 38 10 350 353 3 7 50 79 76 61 46 31 15 9 208 282 315 221 206 228 206 195 195 182 171 146 139
198 205 222 260 308 296 273 235 205 251 260 252 273 282 277 282 278 278 280 294 234 259 272 264 261 59 343 334 337 323 327 337 1 37 71 69 59 30 16 14 26 350 353 14 187 144 169 152 157 152 139 125 132 127
229 245 259 271 287 266 267 277 252 248 274 268 285 299 287 283 281 277 276 272 211 209 230 236 270 308 319 312 328 335 331 308 355 8 326 92 104 92 78 61 72 96 79 85 87 99 91 90 93 130 155 148 135 108
231 259 274 267 247 246 256 236 245 283 279 272 290 269 250 252 265 267 311 233 205 207 218 240 256 296 337 339 317 320 289 202 236 12 226 171 187 176 141 131 128 124 121 110 120 118 140 156 142 120 104 105 112 122
237 238 255 239 229 239 260 226 240 240 234 255 295 264 248 250 343 345 45 10 261 238 260 269 255 331 348 350 352 311 204 175 129 156 157 185 186 129 101 112 106 105 112 125 126 129 121 109 100 93 93 91 84 87
235 227 230 232 201 250 236 230 220 251 258 258 247 270 315 43 357 44 285 288 317 306 270 251 206 138 111 89 102 83 103 113 107 109 123 112 118 109 108 99 94 101 104 109 110 110 108 103 101 97 91 94 89 85
227 227 227 236 208 230 251 233 224 221 248 229 253 261 200 117 19 326 304 307 345 66 95 130 157 135 109 94 105 113 100 98 103 102 103 99 98 104 97 93 88 84 85 89 89 94 89 87 85 85 88 88 82 68
235 226 220 207 201 206 213 244 220 223 227 231 257 249 141 130 190 243 284 307 350 65 95 94 96 100 100 99 94 100 110 111 111 105 103 119 116 106 95 82 73 66 69 74 79 79 77 67 54 41 32 18 7 360
241 239 231 222 222 189 250 266 275 249 231 230 256 180 104 183 188 126 345 68 56 77 95 93 92 85 85 85 80 98 128 121 121 104 105 105 98 89 73 65 58 58 41 28 18 12 7 2 4 5 5 353 358 356
237 250 201 207 214 210 224 210 223 215 210 221 204 59 107 44 90 160 149 99 94 95 90 86 82 78 84 94 87 96 101 110 120 120 117 122 108 97 98 99 94 32 333 328 331 330 340 17 53 54 9 354 352 354
248 238 199 219 199 190 202 231 189 215 221 187 111 127 170 103 96 121 129 104 121 128 99 99 96 86 89 82 87 111 125 139 154 128 90 82 74 67 69 65 55 47 50 52 47 30 10 46 89 102 81 29 5 351
284 319 284 16 32 32 13 11 72 73 89 110 106 105 99 97 120 134 109 108 116 111 121 130 125 128 116 108 98 88 83 80 83 74 63 57 62 69 48 34 37 60 82 100 96 93 27 319 329 331 332 341 354 3
60 79 61 58 52 50 70 98 97 101 104 93 90 90 90 87 74 64 68 82 96 106 118 117 113 121 128 118 73 56 62 48 34 37 43 83 122 103 76 66 76 97 92 81 56 44 20 8 17 19 18 17 16 13
66 90 108 100 98 102 93 87 89 88 93 89 88 85 82 66 61 57 92 90 77 82 96 101 88 80 60 51 55 50 35 32 30 31 52 72 71 56 52 54 57 63 56 78 58 49 38 36 30 26 16 7 5 5
87 75 100 122 157 186 164 135 114 125 143 137 141 99 85 94 100 126 92 92 98 96 90 67 50 36 33 41 59 52 35 28 27 35 45 62 66 68 63 51 45 46 50 53 31 23 21 9 8 14 5 356 353 347